SCP
0 0 0 0 0 0 0 0 0 1 2 3 4 3 2 2 1 1 1 0 0 0 0 0 0 0 0 0 0 0 0 0 0 0 0 0 0 0 0 0 0 0 0
0 0 0 0 0 0 0 0 0 1 1 3 3 3 2 1 1 0 0 0 0 0 0 0 0 0 0 0 0 0 0 0 0 0 0 0 0 0 0 0 0 0 0
0 0 0 0 0 0 0 0 0 0 1 2 3 2 1 0 0 0 0 0 0 0 0 0 0 0 0 0 0 0 0 0 0 0 0 0 0 0 0 0 0 0 0
0 0 0 0 0 0 0 0 0 0 1 2 2 1 0 0 0 0 0 0 0 0 0 0 0 0 0 0 0 0 0 0 0 0 0 0 0 0 0 0 0 0 0
0 0 0 0 0 0 0 0 0 0 1 2 1 1 0 0 0 0 0 0 0 0 0 0 0 0 0 0 0 0 0 0 0 0 0 0 0 0 0 0 0 0 0
0 0 0 0 0 0 0 0 0 0 1 1 1 1 0 0 0 0 0 0 0 0 0 0 0 0 0 0 0 0 0 0 0 0 0 0 0 0 0 0 0 0 0
0 0 0 0 0 0 0 0 0 0 1 1 1 0 0 0 0 0 0 0 0 0 0 0 0 0 0 0 0 0 0 0 0 0 0 0 0 0 0 0 0 0 0
0 0 0 0 0 0 0 0 0 0 1 1 0 0 0 0 0 0 0 0 0 0 0 0 0 0 0 0 0 0 0 0 0 0 0 0 0 0 0 0 0 0 0
0 0 0 0 0 0 0 0 0 0 0 0 0 0 0 0 0 0 0 0 0 0 0 0 0 0 0 0 0 0 0 0 0 0 0 0 0 0 0 0 0 0 0
0 0 0 0 0 0 0 0 0 0 0 0 0 0 0 0 0 0 0 0 0 0 0 0 0 0 0 0 0 0 0 0 0 0 0 0 0 0 0 0 0 0 0
0 0 0 0 0 0 0 0 0 0 0 0 0 0 0 0 0 0 0 0 0 0 0 0 0 0 0 0 0 0 0 0 0 0 0 0 0 0 0 0 0 0 0
0 0 0 0 0 0 0 0 0 0 0 0 0 0 0 0 0 0 0 0 0 0 0 0 0 0 0 0 0 0 0 0 0 0 0 0 0 0 0 0 0 0 0
0 0 0 0 0 0 0 0 0 0 0 0 0 0 0 0 0 0 0 0 0 0 0 0 0 0 0 0 0 0 0 0 0 0 0 0 0 0 0 0 0 0 0
0 0 0 0 0 0 0 0 0 0 0 0 0 0 0 0 0 0 0 0 0 0 0 0 0 0 0 0 0 0 0 0 0 0 0 0 0 0 0 0 0 0 0
0 0 0 0 0 0 0 0 0 0 0 0 0 0 0 0 0 0 0 0 0 0 0 0 0 0 0 0 0 0 0 0 0 0 0 0 0 0 0 0 0 0 0
0 0 0 0 0 0 0 0 0 0 0 0 0 0 0 0 0 0 0 0 0 0 0 0 0 0 0 0 0 0 0 0 0 0 0 0 0 0 0 0 0 0 0
0 0 0 0 0 0 0 0 0 0 0 0 0 0 0 0 0 0 0 0 0 0 0 0 0 0 0 0 0 0 0 0 0 0 0 0 0 0 0 0 0 0 0
0 0 0 0 0 0 0 0 0 0 0 0 0 0 0 0 0 0 0 0 0 0 0 0 0 0 0 0 0 0 0 0 0 0 0 0 0 0 0 0 0 0 0
0 0 0 0 0 0 0 0 0 0 0 0 0 0 0 0 0 0 0 0 0 0 0 0 0 0 0 0 0 0 0 0 0 0 0 0 0 0 0 0 0 0 0
0 0 0 0 0 0 0 0 0 0 0 0 0 0 0 0 0 0 0 0 0 0 0 0 0 0 0 0 0 0 0 0 0 0 0 0 0 0 0 0 0 0 0
0 0 0 0 0 0 0 0 0 0 0 0 0 0 0 0 0 0 0 0 0 0 0 0 0 0 0 0 0 0 0 0 0 0 0 0 0 0 0 0 0 0 0
0 0 0 0 0 0 0 0 0 0 0 0 0 0 0 0 0 0 0 0 0 0 0 0 0 0 0 0 0 0 0 0 0 0 0 0 0 0 0 0 0 0 0
0 0 0 0 0 0 0 0 0 0 0 0 0 0 0 0 0 0 0 0 0 0 0 0 0 0 0 0 0 0 0 0 0 0 0 0 0 0 0 0 0 0 0
0 0 0 0 0 0 0 0 0 0 0 0 0 0 0 0 0 0 0 0 0 0 0 0 0 0 0 0 0 0 0 0 0 0 0 0 0 0 0 0 0 0 0
0 0 0 0 0 0 0 0 0 0 0 0 0 0 0 0 0 0 0 0 0 0 0 0 0 -0 0 0 0 0 0 0 0 0 0 0 0 0 0 0 0 0 0
0 0 0 0 0 0 0 0 0 0 0 0 0 0 0 0 0 0 0 0 0 0 0 0 0 -0 0 0 0 0 0 0 0 0 0 0 0 0 0 0 0 0 0
Wind_Speed
11 10 10 9 9 9 9 9 10 11 9 8 8 8 7 5 4 4 8 9 9 10 9 7 7 6 5 5 5 4 4 3 3 2 2 1 1 2 2 2 1 1 2
12 11 11 10 10 10 9 9 8 10 11 9 8 6 6 4 4 4 6 8 9 10 9 9 7 6 6 6 5 4 3 2 2 2 1 2 2 2 2 2 2 2 0
12 11 11 11 10 11 10 9 9 10 11 11 8 8 6 5 3 4 4 6 8 9 9 9 8 7 6 5 5 4 4 3 2 3 2 2 1 3 3 2 1 1 1
10 9 10 10 10 11 10 9 9 10 11 13 13 15 11 8 6 5 5 7 8 9 9 9 9 8 6 6 5 4 3 3 2 1 2 2 2 0 4 4 2 2 2
7 8 8 8 8 8 9 10 9 10 11 14 16 15 10 7 9 9 10 8 7 8 9 9 8 8 6 7 6 4 4 3 3 2 1 1 0 2 2 4 4 4 3
4 4 5 5 6 6 5 7 9 9 10 13 15 13 13 15 16 14 12 9 7 7 9 9 8 8 7 6 6 5 5 4 3 2 1 1 0 0 1 3 3 4 4
2 3 4 5 5 6 5 5 8 9 10 13 13 12 14 16 18 16 14 13 10 8 9 9 8 7 7 6 5 5 5 4 3 1 0 1 0 1 1 2 4 5 4
3 3 4 5 6 5 5 6 8 8 10 12 11 11 14 11 11 12 12 12 10 9 9 10 9 9 7 6 5 4 3 3 2 2 1 0 1 1 1 2 3 5 4
4 4 4 6 6 5 5 5 8 8 10 11 11 13 13 12 12 12 12 10 10 10 11 11 10 8 7 6 5 3 3 3 2 1 0 1 2 1 2 2 2 3 5
4 5 5 6 5 4 4 4 7 9 10 12 12 12 12 13 13 13 13 13 12 11 12 11 10 8 7 6 4 3 3 1 1 1 1 2 2 2 1 2 3 3 6
6 5 5 4 4 3 2 3 7 10 11 13 13 13 12 13 13 13 13 13 12 13 12 11 9 8 6 5 4 3 3 1 2 2 3 3 3 2 2 2 3 4 5
6 5 5 3 2 2 1 3 8 11 13 14 14 13 13 13 14 14 13 13 13 11 11 10 9 7 6 4 3 2 1 2 2 3 3 3 3 3 3 3 4 4 5
6 5 4 2 1 1 2 5 9 13 15 15 15 14 13 14 15 15 14 13 12 11 10 9 8 6 5 4 3 2 1 2 3 3 4 4 3 4 4 4 4 4 6
6 3 1 1 3 4 5 9 12 14 15 15 14 13 13 14 15 15 13 12 12 11 9 8 7 6 4 3 2 2 2 3 4 4 4 4 4 5 4 4 5 5 6
4 1 2 4 6 8 9 11 12 13 14 14 13 13 14 14 15 14 13 12 11 11 9 8 6 5 3 3 4 4 4 4 5 5 5 5 7 10 8 7 5 6 5
0 3 5 6 8 9 11 12 12 12 13 14 13 14 15 15 15 14 13 12 11 9 7 6 5 3 3 5 3 3 3 5 6 6 5 6 7 10 14 16 16 15 10
2 5 6 8 8 9 11 12 11 12 13 14 14 14 15 15 14 14 13 11 9 7 6 5 3 3 4 3 3 6 4 5 6 6 5 6 6 11 5 11 16 14 19
6 8 8 9 9 10 11 12 13 13 14 14 14 14 15 15 14 12 11 9 7 6 5 4 3 2 2 1 3 7 5 5 6 6 6 6 6 7 10 8 6 7 10
9 9 10 10 11 11 12 14 14 13 13 14 14 13 14 14 13 11 9 7 6 5 4 3 2 1 0 0 3 7 3 4 6 6 6 8 7 15 19 10 8 10 10
10 11 11 11 11 11 12 14 14 14 14 13 13 13 12 13 12 10 8 5 5 4 3 1 0 1 1 2 5 8 2 4 5 5 6 13 15 18 20 11 10 13 11
12 11 12 11 11 11 13 14 14 13 13 13 13 12 12 11 10 8 6 5 4 2 1 0 1 2 2 3 7 9 3 4 4 5 5 6 19 21 22 20 11 15 16
12 11 11 12 11 11 13 15 14 13 13 13 13 12 10 8 8 7 5 4 3 2 1 2 2 2 2 4 7 11 11 12 6 6 5 8 20 23 24 18 17 22 18
11 10 12 13 11 10 12 15 13 12 13 13 12 10 9 7 6 5 5 3 2 2 2 2 2 3 3 5 11 12 16 18 10 8 15 20 23 22 14 16 20 16 7
10 11 12 13 12 11 11 12 12 11 13 13 10 8 7 6 6 4 3 3 3 3 3 3 3 3 4 4 4 4 7 11 10 8 13 19 19 16 15 13 10 6 7
9 10 11 13 13 12 11 10 10 11 12 11 8 7 6 5 4 3 3 3 3 2 2 1 2 3 4 7 15 11 7 7 9 11 6 5 6 5 6 6 6 6 7
11 11 12 13 13 12 11 9 8 10 11 9 6 5 4 4 3 2 2 2 1 2 3 4 5 4 8 14 16 17 18 18 19 11 5 6 6 7 8 9 9 9 8
Wind_Direction
246 242 239 237 231 222 213 202 186 178 172 169 170 170 173 165 154 149 146 138 133 130 131 129 124 124 126 131 130 119 103 55 1 359 338 297 202 199 173 173 171 208 197
244 241 237 235 236 230 216 208 192 181 176 175 171 161 138 120 105 106 115 124 129 133 135 133 131 127 121 112 109 108 110 81 37 48 15 354 331 299 225 180 199 233 197
243 242 238 233 230 231 223 212 201 188 177 163 146 124 105 93 98 107 110 120 126 128 132 131 128 124 120 120 114 111 115 130 83 57 95 107 282 320 313 263 221 215 256
241 242 244 242 232 225 221 215 202 192 176 162 158 160 166 160 159 138 123 117 120 128 129 128 126 121 118 117 115 109 112 116 123 99 68 117 130 110 317 319 322 350 327
238 243 242 242 244 232 218 209 201 192 176 166 164 168 164 136 128 127 128 125 125 125 126 125 123 121 118 114 111 106 97 103 109 107 84 64 66 195 210 282 305 324 315
257 269 274 266 255 249 233 208 193 185 170 162 163 166 157 145 144 145 143 138 134 127 125 124 121 118 117 118 120 115 97 93 93 87 99 127 171 283 259 275 297 295 288
303 311 310 301 277 253 233 216 189 175 163 158 161 163 153 152 154 152 149 146 145 142 137 130 122 118 117 117 113 108 107 103 102 92 79 66 242 252 250 270 285 291 297
298 301 302 300 284 260 226 211 185 168 157 156 157 151 145 148 150 150 150 149 147 143 136 129 123 122 122 121 116 117 128 128 157 214 172 209 263 264 245 250 289 302 290
269 281 289 295 285 264 227 205 177 161 153 149 144 142 142 144 146 144 142 138 137 138 131 126 126 126 124 123 127 132 148 156 188 195 190 249 253 246 246 251 242 262 288
285 284 288 294 286 271 243 198 170 154 144 141 138 137 137 137 139 138 138 137 137 133 130 127 126 125 123 128 134 137 129 132 212 179 225 266 265 272 268 263 261 250 268
296 289 283 287 297 288 249 188 154 139 134 130 127 129 130 132 132 133 133 133 132 132 129 128 127 126 127 131 133 140 144 194 265 263 246 256 263 267 268 270 269 265 265
280 278 280 277 284 281 211 153 137 128 124 122 123 125 127 129 129 129 128 129 128 125 124 124 123 123 122 120 124 130 149 238 267 277 280 279 282 278 273 269 267 269 269
277 271 262 233 167 136 118 118 118 118 118 119 122 125 128 129 128 127 126 124 121 117 115 114 114 113 110 103 88 69 348 303 285 276 269 270 276 278 274 277 280 280 288
284 262 236 160 123 110 106 107 107 113 117 118 123 127 129 128 125 122 119 116 114 112 108 105 105 105 105 100 71 26 334 307 295 285 274 265 258 259 264 276 273 277 281
280 243 117 110 109 105 104 105 108 111 116 119 123 126 123 120 117 115 113 110 108 105 103 104 102 105 112 89 56 11 336 325 313 304 293 283 285 287 286 283 270 275 276
286 112 107 107 109 110 110 109 110 113 116 120 123 122 120 116 113 111 109 106 103 103 104 106 110 115 102 87 35 342 326 317 308 300 297 297 295 295 300 305 304 301 299
89 102 104 104 107 109 111 111 114 114 116 119 121 120 118 114 110 110 107 106 106 107 106 107 109 106 114 104 359 329 324 304 292 291 293 297 297 307 295 294 297 298 298
88 97 100 99 99 102 105 108 110 112 115 118 118 117 114 110 107 106 105 105 107 108 107 106 95 88 143 128 341 328 330 305 298 297 294 291 290 292 297 283 283 278 289
87 91 94 98 99 102 107 111 111 113 114 114 114 113 111 110 108 106 104 103 103 101 100 96 74 31 74 226 333 335 319 303 304 304 312 316 301 302 308 310 301 294 290
87 94 97 98 99 102 107 111 111 111 111 111 109 106 106 106 106 106 104 99 98 97 96 99 287 296 284 301 325 329 304 303 304 305 306 310 309 309 313 311 301 300 298
94 99 102 103 105 109 111 109 108 109 110 108 104 101 99 102 104 102 99 98 94 90 78 360 310 299 284 314 317 320 312 287 291 296 297 298 310 311 311 310 301 298 303
105 108 110 110 112 115 115 112 110 110 108 105 101 98 97 99 101 100 95 91 84 60 20 14 353 342 347 335 317 321 326 327 316 307 300 302 311 312 312 311 305 307 311
110 112 113 110 105 106 113 112 111 112 108 103 100 99 95 91 91 93 93 82 63 48 28 15 351 336 345 337 339 339 332 326 320 307 311 313 314 314 311 307 312 317 311
109 111 110 106 102 102 104 109 114 113 108 104 101 97 95 88 78 70 68 67 61 47 24 8 356 344 340 334 335 325 317 316 313 305 305 312 312 311 312 314 316 308 297
107 107 108 108 108 108 107 108 112 110 105 101 97 92 89 91 83 70 62 71 80 82 37 354 344 338 323 317 324 326 316 310 305 311 305 304 307 310 313 309 305 302 306
110 109 109 109 109 108 104 101 102 106 106 102 95 91 88 82 81 71 57 73 80 14 342 325 322 315 316 322 327 324 321 322 321 322 315 312 313 313 313 313 312 310 307